Location: Mohawk View
(42.7837°N, 73.7885°W)
Time: 11:21:59
(UTC+00:00)

Cosmos 1825 - Pass Details

Date: 17 June 2021
Orbit: 500 x 507 km, 82.5° (Epoch: 26 July)

Event Time Altitude Azimuth Distance (km) Brightness Sun altitude
Exits shadow 07:27:28 12° 273° (W) 1,589 4.4 -15.2°
Maximum altitude 07:28:28 13° 290° (WNW) 1,531 4.4 -15.1°
Drops below altitude 10° 07:30:20 10° 320° (NW) 1,727 5.0 -14.9°
Sets 07:33:28 0° 348° (NNW) 2,617 6.4 -14.6°
